Location: Nowy Sacz
(49.6330°N, 20.7170°E)
Time: 13:19:03
(UTC+01:00)

Envisat - Pass Details

Date: 23 September 2023
Orbit: 762 x 764 km, 98.3° (Epoch: 30 November)

Event Time Altitude Azimuth Distance (km) Brightness Sun altitude
Rises 04:20:03 0° 15° (NNE) 3,244 6.8 -20.3°
Reaches altitude 10° 04:22:23 10° 17° (NNE) 2,314 6.0 -19.9°
Maximum altitude 04:27:29 75° 103° (ESE) 796 3.1 -19.2°
Enters shadow 04:32:06 13° 189° (S) 2,120 5.0 -18.5°
